DELTA 1 DEB, 2224

Orbit data source: Space-Track

DELTA 1 DEB, 2224 is space debris in SSO originally from a launch on Mon, 28 Feb 1966 UTC launched from the Air Force Eastern Test Range (AFETR). Debris objects in space refer to the collection of defunct objects orbiting the Earth. Examples of debris include non-operational satellites, rocket bodies, and fragments generated from explosions, collisions, or faulty payload assembly.

Loading next visibility...
Identifier
2224, 1966-016D
Orbit
SSO
Last TLE update
1 day ago
Origin
Manufacturer
Unknown
Mission
Spacecraft
Bus & Motor
Unknown
Mass
1 kg wet, 1 kg dry
Launch date (UTC)
1966-02-28 (59 years ago)
Launch vehicle
Unknown
Launch site
Air Force Eastern Test Range (AFETR)
Object type
Payload
Rocket body
Debris
Shape & HBR
Cyl + 1 Cable, 3.5 m
Radar Cross Section
3.500 m², Small (<0.1 m²)

Expand to show TLE details & history

TLE from 1 day ago
0 DELTA 1 DEB
1 02224U 66016D   25170.41139021 -.00000026  00000-0  97694-4 0  9993
2 02224 101.1321 107.5681 0137248 220.3764 264.5970 12.52158125700493
Epoch: 2025-06-19T09:52Z
TLE epoch observation values (Epoch: 2025-06-19T09:52:24.114Z)
Latitude
55.08265°
Longitude
-112.12149°
Altitude
1,476.007 km
Speed
7.125 km/s
True Right ascension
20h 15m 26s
True Declination
54° 56' 09"
Sunlit
Object was in daylight at epoch
Visualization orbit readout
Latitude
72.96908°
Longitude
12.81393°
Altitude
1,551.371 km
Speed
7.06 km/s
Apparent Right ascension
08h 00m 53s
Apparent Declination
30° 10' 40"
Sunlit
Object is in daylight
Visualization observer readout
Local Sidereal Time
21:28:08
Azimuth
19.631° NNE
Elevation
-17.038°
Doppler factor
1
Orbital elements
Apogee altitude
1,560.47 km
Perigee altitude
1,345.508 km
Semi-major axis
7,831.126 km
Eccentricity
0.01372
Inclination
101.1321°
RAAN
107.5681°
Arg. of periapsis
220.3764°
True anomaly
Unknown
Mean anomaly
264.597°
Eccentric anomaly
Unknown
Mean motion
3.13189 °/min
Orbital period
114.95 mins
BSTAR
0.000097694
Loading maneuver chart data...
Loading SW <> Apogee altitude chart data...
Loading historical data...
Loading historical data...
Loading historical data...
Loading historical data...
Loading historical data...
Loading historical data...
Loading historical data...
Other satellites on launch #16 in the year 1966 (1966-02-28 UTC)

DELTA 1 DEB Visibility forecast

Observer location: undefined°, undefined°

Span
Click to sort rows by Start time (UTC) header in descending order
Start Az.
Max El. time (UTC)
Max El. Az.
Max El.
End time (UTC)
End Az.
10 mins2025-06-20 10:45:02.472Z346.35° N2025-06-20 10:50:02.472Z306.132° NW19.395°2025-06-20 10:55:02.472Z266.644° W
11 mins2025-06-20 17:59:02.472Z98.859° ESE2025-06-20 18:04:02.472Z56.324° ENE24.675°2025-06-20 18:10:02.472Z7.721° NNE
16 mins2025-06-20 19:49:02.472Z170.278° S2025-06-20 19:56:02.472Z244.408° WSW44.097°2025-06-20 20:05:02.472Z340.574° N
6 mins2025-06-20 21:48:02.472Z255.133° W2025-06-20 21:50:02.472Z269.614° W13.792°2025-06-20 21:54:02.472Z297.934° NW
13 mins2025-06-21 07:53:02.472Z34.739° NE2025-06-21 07:59:02.472Z91.469° ESE33.327°2025-06-21 08:06:02.472Z163.829° S
13 mins2025-06-21 09:46:02.472Z0.66° NNE2025-06-21 09:52:02.472Z303.968° NW34.602°2025-06-21 09:59:02.472Z232.103° WSW
|